Location: Partizánske
(48.6285°N, 18.3769°E)
Time: 00:17:40
(UTC+02:00)

deb Explorer IX - Visible Passes

Search period start: 25 June 2022 00:00
Search period end: 05 July 2022 00:00
Orbit: 535 x 1069 km, 38.8° (Epoch: 24 June)

Date Brightness Start Highest point End Pass type
(mag) Time Alt. Az. Time Alt. Az. Time Alt. Az.
25 Jun ? 01:29:07 17° SE 01:29:07 17° SE 01:30:58 10° ESE visible
25 Jun ? 03:09:59 15° SW 03:12:51 25° S 03:17:08 10° SE visible
26 Jun ? 01:01:30 10° ESE 01:01:30 10° ESE 01:01:31 10° ESE visible
26 Jun ? 02:42:24 22° SSW 02:43:36 24° S 02:47:41 10° SE visible
27 Jun ? 02:15:05 23° S 02:15:05 23° S 02:18:15 10° SE visible
27 Jun ? 03:57:11 10° SW 03:59:56 15° SSW 04:02:54 10° SSE visible
28 Jun ? 01:48:11 13° SE 01:48:11 13° SE 01:48:50 10° SE visible
28 Jun ? 03:29:09 13° SW 03:30:42 15° SSW 03:33:30 10° SSE visible
29 Jun ? 03:02:51 13° S 03:02:51 13° S 03:04:07 10° SSE visible
30 Jun ? 22:29:30 10° SSW 22:31:44 16° S 22:31:44 16° S visible
01 Jul ? 22:00:22 10° SSW 22:02:50 16° SSE 22:04:30 13° SE visible
01 Jul ? 23:45:12 10° SW 23:45:24 11° SW 23:45:24 11° SW visible
02 Jul ? 21:31:11 10° SSW 21:33:37 15° SSE 21:36:01 10° SE visible
02 Jul ? 23:16:00 10° SW 23:17:50 18° SSW 23:17:50 18° SSW visible
03 Jul ? 22:46:47 10° SW 22:49:50 21° S 22:50:04 21° S visible
04 Jul ? 22:17:31 10° SW 22:20:37 21° S 22:22:11 17° SSE visible
